Time,TemperatureF,DewpointF,PressureIn,WindDirection,WindDirectionDegrees,WindSpeedMPH,WindSpeedGustMPH,Humidity,HourlyPrecipIn,Conditions,Clouds,dailyrainin,SoftwareType,DateUTC
2013-05-29 00:01:00,67.9,61.2,30.11,ENE,63,0.0,0.0,79,0.00,,SKC,0.00,VWS V14.01,2013-05-29 04:01:00,
2013-05-29 00:06:00,67.7,61.0,30.11,ENE,63,0.0,0.0,79,0.00,,SKC,0.00,VWS V14.01,2013-05-29 04:06:00,
2013-05-29 00:11:00,67.9,61.2,30.11,East,79,0.0,1.0,79,0.00,,SKC,0.00,VWS V14.01,2013-05-29 04:11:00,
2013-05-29 00:16:00,68.0,61.2,30.11,East,79,0.0,0.0,79,0.00,,SKC,0.00,VWS V14.01,2013-05-29 04:16:00,
2013-05-29 00:21:00,67.9,61.2,30.11,East,79,0.0,0.0,79,0.00,,SKC,0.00,VWS V14.01,2013-05-29 04:21:00,
2013-05-29 00:26:00,67.5,61.1,30.11,East,79,0.0,0.0,80,0.00,,SKC,0.00,VWS V14.01,2013-05-29 04:26:00,
2013-05-29 00:31:00,67.4,61.0,30.10,East,79,0.0,0.0,80,0.00,,SKC,0.00,VWS V14.01,2013-05-29 04:31:00,
2013-05-29 00:36:00,67.4,61.0,30.10,East,79,0.0,0.0,80,0.00,,SKC,0.00,VWS V14.01,2013-05-29 04:36:00,
2013-05-29 00:41:00,67.3,61.3,30.10,East,79,0.0,0.0,81,0.00,,SKC,0.00,VWS V14.01,2013-05-29 04:41:00,
2013-05-29 00:46:00,67.1,61.1,30.10,East,79,0.0,0.0,81,0.00,,SKC,0.00,VWS V14.01,2013-05-29 04:46:00,
2013-05-29 00:51:00,67.1,61.1,30.10,ENE,57,0.0,1.0,81,0.00,,SKC,0.00,VWS V14.01,2013-05-29 04:51:00,
2013-05-29 00:56:00,67.6,61.2,30.10,SE,134,0.0,3.0,80,0.00,,SKC,0.00,VWS V14.01,2013-05-29 04:56:00,
2013-05-29 01:01:00,68.1,61.3,30.10,SW,215,0.0,3.0,79,0.00,,SKC,0.00,VWS V14.01,2013-05-29 05:01:00,
2013-05-29 01:06:00,68.5,61.4,30.10,ESE,115,0.0,4.0,78,0.00,,SKC,0.00,VWS V14.01,2013-05-29 05:06:00,
2013-05-29 01:11:00,68.7,61.6,30.10,East,84,2.0,2.0,78,0.00,,SKC,0.00,VWS V14.01,2013-05-29 05:11:00,
2013-05-29 01:16:00,69.0,61.9,30.10,South,169,0.0,5.0,78,0.00,,SKC,0.00,VWS V14.01,2013-05-29 05:16:00,
2013-05-29 01:21:00,69.2,61.7,30.10,SW,224,0.0,3.0,77,0.00,,SKC,0.00,VWS V14.01,2013-05-29 05:21:00,
2013-05-29 01:26:00,69.3,61.8,30.10,East,99,1.0,2.0,77,0.00,,SKC,0.00,VWS V14.01,2013-05-29 05:26:00,
2013-05-29 01:31:00,69.5,61.6,30.10,South,185,0.0,4.0,76,0.00,,SKC,0.00,VWS V14.01,2013-05-29 05:31:00,
2013-05-29 01:36:00,69.7,61.4,30.09,SSW,201,4.0,5.0,75,0.00,,SKC,0.00,VWS V14.01,2013-05-29 05:36:00,
2013-05-29 01:41:00,70.0,61.7,30.10,South,172,0.0,3.0,75,0.00,,SKC,0.00,VWS V14.01,2013-05-29 05:41:00,
2013-05-29 01:46:00,69.9,61.2,30.09,SSE,155,0.0,1.0,74,0.00,,SKC,0.00,VWS V14.01,2013-05-29 05:46:00,
2013-05-29 01:51:00,69.9,61.2,30.09,ESE,119,1.0,2.0,74,0.00,,SKC,0.00,VWS V14.01,2013-05-29 05:51:00,
2013-05-29 01:56:00,69.9,61.2,30.09,SSW,200,1.0,2.0,74,0.00,,SKC,0.00,VWS V14.01,2013-05-29 05:56:00,
2013-05-29 02:01:00,69.9,61.2,30.09,ESE,117,0.0,2.0,74,0.00,,SKC,0.00,VWS V14.01,2013-05-29 06:01:00,
2013-05-29 02:06:00,69.8,61.2,30.09,SSW,210,3.0,3.0,74,0.00,,SKC,0.00,VWS V14.01,2013-05-29 06:06:00,
2013-05-29 02:11:00,69.8,61.2,30.10,SW,231,0.0,2.0,74,0.00,,SKC,0.00,VWS V14.01,2013-05-29 06:11:00,
2013-05-29 02:16:00,69.8,61.2,30.10,SSW,194,0.0,3.0,74,0.00,,SKC,0.00,VWS V14.01,2013-05-29 06:16:00,
2013-05-29 02:21:00,69.7,61.4,30.10,NNW,347,0.0,2.0,75,0.00,,SKC,0.00,VWS V14.01,2013-05-29 06:21:00,
2013-05-29 02:26:00,69.7,61.4,30.10,East,99,2.0,3.0,75,0.00,,SKC,0.00,VWS V14.01,2013-05-29 06:26:00,
2013-05-29 02:31:00,69.6,61.3,30.10,SSW,211,0.0,2.0,75,0.00,,SKC,0.00,VWS V14.01,2013-05-29 06:31:00,
2013-05-29 02:36:00,69.4,61.5,30.10,ESE,108,1.0,3.0,76,0.00,,SKC,0.00,VWS V14.01,2013-05-29 06:36:00,
2013-05-29 02:41:00,69.4,61.5,30.10,East,93,0.0,5.0,76,0.00,,SKC,0.00,VWS V14.01,2013-05-29 06:41:00,
2013-05-29 02:46:00,69.3,61.4,30.10,South,183,1.0,4.0,76,0.00,,SKC,0.00,VWS V14.01,2013-05-29 06:46:00,
2013-05-29 02:51:00,69.2,61.3,30.11,ENE,63,3.0,3.0,76,0.00,,SKC,0.00,VWS V14.01,2013-05-29 06:51:00,
2013-05-29 02:56:00,69.1,61.2,30.11,West,269,1.0,2.0,76,0.00,,SKC,0.00,VWS V14.01,2013-05-29 06:56:00,
2013-05-29 03:01:00,69.0,61.5,30.11,SW,226,1.0,4.0,77,0.00,,SKC,0.00,VWS V14.01,2013-05-29 07:01:00,
2013-05-29 03:06:00,68.9,61.4,30.11,SW,220,0.0,3.0,77,0.00,,SKC,0.00,VWS V14.01,2013-05-29 07:06:00,
2013-05-29 03:11:00,68.7,61.2,30.11,SW,236,1.0,4.0,77,0.00,,SKC,0.00,VWS V14.01,2013-05-29 07:11:00,
2013-05-29 03:16:00,68.5,61.4,30.11,NNE,27,0.0,1.0,78,0.00,,SKC,0.00,VWS V14.01,2013-05-29 07:16:00,
2013-05-29 03:21:00,68.2,61.1,30.11,SSE,167,0.0,1.0,78,0.00,,SKC,0.00,VWS V14.01,2013-05-29 07:21:00,
2013-05-29 03:26:00,67.8,61.1,30.11,SSW,207,0.0,2.0,79,0.00,,SKC,0.00,VWS V14.01,2013-05-29 07:26:00,
2013-05-29 03:31:00,67.8,61.1,30.11,SSW,207,0.0,0.0,79,0.00,,SKC,0.00,VWS V14.01,2013-05-29 07:31:00,
2013-05-29 03:36:00,67.8,61.1,30.11,SSW,207,0.0,0.0,79,0.00,,SKC,0.00,VWS V14.01,2013-05-29 07:36:00,
2013-05-29 03:41:00,67.8,61.1,30.11,SSW,207,0.0,0.0,79,0.00,,SKC,0.00,VWS V14.01,2013-05-29 07:41:00,
2013-05-29 03:46:00,67.8,61.1,30.11,SSW,207,0.0,0.0,79,0.00,,SKC,0.00,VWS V14.01,2013-05-29 07:46:00,
2013-05-29 03:51:00,67.8,61.1,30.11,SSW,207,0.0,0.0,79,0.00,,SKC,0.00,VWS V14.01,2013-05-29 07:51:00,
2013-05-29 03:56:00,67.8,61.1,30.12,SSW,207,0.0,0.0,79,0.00,,SKC,0.00,VWS V14.01,2013-05-29 07:56:00,
2013-05-29 04:01:00,67.8,61.1,30.12,SSW,207,0.0,0.0,79,0.00,,SKC,0.00,VWS V14.01,2013-05-29 08:01:00,
2013-05-29 04:06:00,67.8,61.1,30.12,SSW,207,0.0,0.0,79,0.00,,SKC,0.00,VWS V14.01,2013-05-29 08:06:00,
2013-05-29 04:11:00,67.8,61.1,30.12,SSW,207,0.0,0.0,79,0.00,,SKC,0.00,VWS V14.01,2013-05-29 08:11:00,
2013-05-29 04:16:00,67.8,61.1,30.12,SSW,207,0.0,0.0,79,0.00,,SKC,0.00,VWS V14.01,2013-05-29 08:16:00,
2013-05-29 04:21:00,67.8,61.1,30.12,SSW,207,0.0,0.0,79,0.00,,SKC,0.00,VWS V14.01,2013-05-29 08:21:00,
2013-05-29 04:26:00,67.8,61.1,30.12,SSW,207,0.0,0.0,79,0.00,,SKC,0.00,VWS V14.01,2013-05-29 08:26:00,
2013-05-29 04:31:00,67.8,61.1,30.13,SSW,207,0.0,0.0,79,0.00,,SKC,0.00,VWS V14.01,2013-05-29 08:31:00,
2013-05-29 04:36:00,67.8,61.1,30.12,SSW,207,0.0,0.0,79,0.00,,SKC,0.00,VWS V14.01,2013-05-29 08:36:00,
2013-05-29 04:41:00,67.8,61.1,30.12,SSW,207,0.0,0.0,79,0.00,,SKC,0.00,VWS V14.01,2013-05-29 08:41:00,
2013-05-29 04:46:00,67.8,61.1,30.13,SSW,207,0.0,0.0,79,0.00,,SKC,0.00,VWS V14.01,2013-05-29 08:46:00,
2013-05-29 04:51:00,67.8,61.1,30.13,SSW,207,0.0,0.0,79,0.00,,SKC,0.00,VWS V14.01,2013-05-29 08:51:00,
2013-05-29 04:56:00,67.8,61.1,30.13,SSW,207,0.0,0.0,79,0.00,,SKC,0.00,VWS V14.01,2013-05-29 08:56:00,
2013-05-29 05:01:00,67.8,61.1,30.13,SSW,207,0.0,0.0,79,0.00,,SKC,0.00,VWS V14.01,2013-05-29 09:01:00,
2013-05-29 05:06:00,67.8,61.1,30.13,SSW,207,0.0,0.0,79,0.00,,SKC,0.00,VWS V14.01,2013-05-29 09:06:00,
2013-05-29 05:11:00,67.8,61.1,30.13,SSW,207,0.0,0.0,79,0.00,,SKC,0.00,VWS V14.01,2013-05-29 09:11:00,
2013-05-29 05:16:00,67.8,61.1,30.13,SSW,207,0.0,0.0,79,0.00,,SKC,0.00,VWS V14.01,2013-05-29 09:16:00,
2013-05-29 05:21:00,67.8,61.1,30.13,SSW,207,0.0,0.0,79,0.00,,SKC,0.00,VWS V14.01,2013-05-29 09:21:00,
2013-05-29 05:26:00,67.8,61.1,30.13,SSW,207,0.0,0.0,79,0.00,,SKC,0.00,VWS V14.01,2013-05-29 09:26:00,
2013-05-29 05:31:00,67.8,61.1,30.14,SSW,207,0.0,0.0,79,0.00,,SKC,0.00,VWS V14.01,2013-05-29 09:31:00,
2013-05-29 05:36:00,67.8,61.1,30.14,SSW,207,0.0,0.0,79,0.00,,SKC,0.00,VWS V14.01,2013-05-29 09:36:00,
2013-05-29 05:41:00,67.8,61.1,30.14,SSW,207,0.0,0.0,79,0.00,,SKC,0.00,VWS V14.01,2013-05-29 09:41:00,
2013-05-29 05:46:00,67.8,61.1,30.14,SSW,207,0.0,0.0,79,0.00,,SKC,0.00,VWS V14.01,2013-05-29 09:46:00,
2013-05-29 05:51:00,67.8,61.1,30.14,SSW,207,0.0,0.0,79,0.00,,SKC,0.00,VWS V14.01,2013-05-29 09:51:00,
2013-05-29 05:56:00,67.8,61.1,30.14,SSW,207,0.0,0.0,79,0.00,,SKC,0.00,VWS V14.01,2013-05-29 09:56:00,
2013-05-29 06:01:00,67.8,61.1,30.14,SSW,207,0.0,0.0,79,0.00,,SKC,0.00,VWS V14.01,2013-05-29 10:01:00,
2013-05-29 06:06:00,67.8,61.1,30.14,SSW,207,0.0,0.0,79,0.00,,SKC,0.00,VWS V14.01,2013-05-29 10:06:00,
2013-05-29 06:11:00,67.8,61.1,30.15,SSW,207,0.0,0.0,79,0.00,,SKC,0.00,VWS V14.01,2013-05-29 10:11:00,
2013-05-29 06:16:00,67.8,61.1,30.15,SSW,207,0.0,0.0,79,0.00,,SKC,0.00,VWS V14.01,2013-05-29 10:16:00,
2013-05-29 06:21:00,67.8,61.1,30.15,SSW,207,0.0,0.0,79,0.00,,SKC,0.00,VWS V14.01,2013-05-29 10:21:00,
2013-05-29 06:26:00,67.8,61.1,30.15,SSW,207,0.0,0.0,79,0.00,,SKC,0.00,VWS V14.01,2013-05-29 10:26:00,
2013-05-29 06:31:00,67.8,61.1,30.15,SSW,207,0.0,0.0,79,0.00,,SKC,0.00,VWS V14.01,2013-05-29 10:31:00,
2013-05-29 06:36:00,67.8,61.1,30.15,SSW,207,0.0,0.0,79,0.00,,SKC,0.00,VWS V14.01,2013-05-29 10:36:00,
2013-05-29 06:41:00,67.8,61.1,30.15,SSW,207,0.0,0.0,79,0.00,,SKC,0.00,VWS V14.01,2013-05-29 10:41:00,
2013-05-29 06:46:00,67.8,61.1,30.15,SSW,207,0.0,0.0,79,0.00,,SKC,0.00,VWS V14.01,2013-05-29 10:46:00,
2013-05-29 06:51:00,67.8,61.1,30.15,SSW,207,0.0,0.0,79,0.00,,SKC,0.00,VWS V14.01,2013-05-29 10:51:00,
2013-05-29 06:56:00,67.8,61.1,30.16,SSW,207,0.0,0.0,79,0.00,,SKC,0.00,VWS V14.01,2013-05-29 10:56:00,
2013-05-29 07:01:00,67.8,61.1,30.16,SSW,207,0.0,0.0,79,0.00,,SKC,0.00,VWS V14.01,2013-05-29 11:01:00,
2013-05-29 07:06:00,67.8,61.1,30.16,SSW,207,0.0,0.0,79,0.00,,SKC,0.00,VWS V14.01,2013-05-29 11:06:00,
2013-05-29 07:11:00,67.8,61.1,30.16,SSW,207,0.0,0.0,79,0.00,,SKC,0.00,VWS V14.01,2013-05-29 11:11:00,
2013-05-29 07:16:00,67.8,61.1,30.16,SSW,207,0.0,0.0,79,0.00,,SKC,0.00,VWS V14.01,2013-05-29 11:16:00,
2013-05-29 07:21:00,67.8,61.1,30.16,SSW,207,0.0,0.0,79,0.00,,SKC,0.00,VWS V14.01,2013-05-29 11:21:00,
2013-05-29 07:26:00,67.8,61.1,30.16,SSW,207,0.0,0.0,79,0.00,,SKC,0.00,VWS V14.01,2013-05-29 11:26:00,
2013-05-29 07:31:00,67.8,61.1,30.16,SSW,207,0.0,0.0,79,0.00,,SKC,0.00,VWS V14.01,2013-05-29 11:31:00,
2013-05-29 07:36:00,63.7,61.3,30.16,East,79,0.0,0.0,92,0.00,,SKC,0.00,VWS V14.01,2013-05-29 11:36:00,
2013-05-29 07:41:00,64.1,61.7,30.16,East,79,0.0,1.0,92,0.00,,SKC,0.00,VWS V14.01,2013-05-29 11:41:00,
2013-05-29 07:46:00,64.4,61.4,30.16,ENE,78,0.0,1.0,90,0.00,,SKC,0.00,VWS V14.01,2013-05-29 11:46:00,
2013-05-29 07:51:00,64.7,61.7,30.17,ENE,72,1.0,2.0,90,0.00,,SKC,0.00,VWS V14.01,2013-05-29 11:51:00,
2013-05-29 07:56:00,64.9,61.6,30.17,East,86,1.0,1.0,89,0.00,,SKC,0.00,VWS V14.01,2013-05-29 11:56:00,
2013-05-29 08:01:00,65.2,61.9,30.17,East,89,0.0,2.0,89,0.00,,SKC,0.00,VWS V14.01,2013-05-29 12:01:00,
2013-05-29 08:06:00,65.5,61.9,30.17,East,89,0.0,1.0,88,0.00,,FEW016,0.00,VWS V14.01,2013-05-29 12:06:00,
2013-05-29 08:11:00,65.7,62.0,30.17,East,98,3.0,4.0,88,0.00,,FEW016,0.00,VWS V14.01,2013-05-29 12:11:00,
2013-05-29 08:16:00,65.9,62.2,30.17,ESE,114,0.0,2.0,88,0.00,,FEW016,0.00,VWS V14.01,2013-05-29 12:16:00,
2013-05-29 08:21:00,66.1,62.1,30.17,East,101,0.0,2.0,87,0.00,,FEW016,0.00,VWS V14.01,2013-05-29 12:21:00,
2013-05-29 08:26:00,66.3,62.3,30.17,East,89,0.0,2.0,87,0.00,,FEW016,0.00,VWS V14.01,2013-05-29 12:26:00,
2013-05-29 08:31:00,66.5,62.5,30.17,East,86,1.0,2.0,87,0.00,,FEW016,0.00,VWS V14.01,2013-05-29 12:31:00,
2013-05-29 08:36:00,66.7,62.7,30.18,East,79,0.0,3.0,87,0.00,,FEW016,0.00,VWS V14.01,2013-05-29 12:36:00,
2013-05-29 08:41:00,66.9,62.6,30.18,East,98,1.0,3.0,86,0.00,,FEW016,0.00,VWS V14.01,2013-05-29 12:41:00,
2013-05-29 08:46:00,67.1,63.1,30.18,SSE,163,0.0,1.0,87,0.00,,FEW016,0.00,VWS V14.01,2013-05-29 12:46:00,
2013-05-29 08:51:00,67.4,63.1,30.18,East,84,0.0,4.0,86,0.00,,FEW016,0.00,VWS V14.01,2013-05-29 12:51:00,
2013-05-29 08:56:00,67.7,63.4,30.18,East,82,1.0,2.0,86,0.00,,FEW016,0.00,VWS V14.01,2013-05-29 12:56:00,
2013-05-29 09:01:00,67.9,63.6,30.18,East,96,0.0,1.0,86,0.00,,FEW016,0.00,VWS V14.01,2013-05-29 13:01:00,
2013-05-29 09:06:00,68.3,63.6,30.18,ESE,111,0.0,2.0,85,0.00,,FEW016,0.00,VWS V14.01,2013-05-29 13:06:00,
2013-05-29 09:11:00,68.2,63.2,30.18,ENE,78,0.0,5.0,84,0.00,,FEW016,0.00,VWS V14.01,2013-05-29 13:11:00,
2013-05-29 09:16:00,68.3,63.6,30.18,ENE,63,1.0,1.0,85,0.00,,FEW016,0.00,VWS V14.01,2013-05-29 13:16:00,
2013-05-29 09:21:00,68.8,64.1,30.18,ENE,70,2.0,4.0,85,0.00,,FEW016,0.00,VWS V14.01,2013-05-29 13:21:00,
2013-05-29 09:26:00,68.9,63.9,30.19,ENE,74,4.0,4.0,84,0.00,,FEW016,0.00,VWS V14.01,2013-05-29 13:26:00,
2013-05-29 09:31:00,68.9,63.9,30.19,East,82,0.0,5.0,84,0.00,,FEW016,0.00,VWS V14.01,2013-05-29 13:31:00,
2013-05-29 09:36:00,69.3,64.3,30.18,ENE,68,0.0,4.0,84,0.00,,FEW016,0.00,VWS V14.01,2013-05-29 13:36:00,
2013-05-29 09:41:00,69.4,64.0,30.18,NE,46,0.0,4.0,83,0.00,,FEW016,0.00,VWS V14.01,2013-05-29 13:41:00,
2013-05-29 09:46:00,69.9,64.5,30.18,NNE,18,1.0,3.0,83,0.00,,FEW016,0.00,VWS V14.01,2013-05-29 13:46:00,
2013-05-29 09:51:00,70.5,65.1,30.18,ESE,121,3.0,4.0,83,0.00,,FEW016,0.00,VWS V14.01,2013-05-29 13:51:00,
2013-05-29 09:56:00,71.3,64.8,30.18,SE,134,0.0,1.0,80,0.00,,FEW016,0.00,VWS V14.01,2013-05-29 13:56:00,
2013-05-29 10:01:00,72.1,65.6,30.18,East,80,4.0,4.0,80,0.00,,FEW016,0.00,VWS V14.01,2013-05-29 14:01:00,
2013-05-29 10:06:00,72.3,65.1,30.18,East,92,0.0,2.0,78,0.00,,SCT040,0.00,VWS V14.01,2013-05-29 14:06:00,
2013-05-29 10:11:00,72.3,64.7,30.18,East,84,0.0,2.0,77,0.00,,SCT040,0.00,VWS V14.01,2013-05-29 14:11:00,
2013-05-29 10:16:00,72.7,65.4,30.19,South,170,0.0,1.0,78,0.00,,SCT040,0.00,VWS V14.01,2013-05-29 14:16:00,
2013-05-29 10:21:00,73.5,65.5,30.19,South,172,0.0,0.0,76,0.00,,SCT040,0.00,VWS V14.01,2013-05-29 14:21:00,
2013-05-29 10:26:00,74.0,65.2,30.19,SSW,200,0.0,1.0,74,0.00,,SCT040,0.00,VWS V14.01,2013-05-29 14:26:00,
2013-05-29 10:31:00,73.9,64.7,30.19,NNE,27,1.0,4.0,73,0.00,,SCT040,0.00,VWS V14.01,2013-05-29 14:31:00,
2013-05-29 10:36:00,73.6,65.2,30.19,SSW,208,0.0,2.0,75,0.00,,SCT040,0.00,VWS V14.01,2013-05-29 14:36:00,
2013-05-29 10:41:00,73.5,65.1,30.19,SSW,207,0.0,3.0,75,0.00,,SCT040,0.00,VWS V14.01,2013-05-29 14:41:00,
2013-05-29 10:46:00,73.7,64.9,30.19,East,101,0.0,2.0,74,0.00,,SCT040,0.00,VWS V14.01,2013-05-29 14:46:00,
2013-05-29 10:51:00,73.6,65.2,30.19,ESE,110,1.0,4.0,75,0.00,,SCT040,0.00,VWS V14.01,2013-05-29 14:51:00,
2013-05-29 10:56:00,73.5,65.1,30.19,ENE,62,2.0,2.0,75,0.00,,SCT040,0.00,VWS V14.01,2013-05-29 14:56:00,
2013-05-29 11:01:00,73.9,65.5,30.19,SSW,195,0.0,1.0,75,0.00,,SCT040,0.00,VWS V14.01,2013-05-29 15:01:00,
2013-05-29 11:06:00,73.9,65.9,30.19,East,91,0.0,5.0,76,0.00,,BKN021,0.00,VWS V14.01,2013-05-29 15:06:00,
2013-05-29 11:11:00,74.2,65.0,30.19,SW,223,0.0,1.0,73,0.00,,BKN021,0.00,VWS V14.01,2013-05-29 15:11:00,
2013-05-29 11:16:00,75.3,66.1,30.19,SSW,209,1.0,2.0,73,0.00,,BKN021,0.00,VWS V14.01,2013-05-29 15:16:00,
2013-05-29 11:21:00,76.4,65.5,30.19,ESE,105,0.0,2.0,69,0.00,,BKN021,0.00,VWS V14.01,2013-05-29 15:21:00,
2013-05-29 11:26:00,77.5,65.3,30.19,ESE,118,1.0,6.0,66,0.00,,BKN021,0.00,VWS V14.01,2013-05-29 15:26:00,
2013-05-29 11:31:00,77.2,65.4,30.19,SW,226,0.0,3.0,67,0.00,,BKN021,0.00,VWS V14.01,2013-05-29 15:31:00,
2013-05-29 11:36:00,77.2,65.0,30.19,NW,319,1.0,3.0,66,0.00,,BKN021,0.00,VWS V14.01,2013-05-29 15:36:00,
2013-05-29 11:41:00,77.1,65.3,30.19,East,83,4.0,5.0,67,0.00,,BKN021,0.00,VWS V14.01,2013-05-29 15:41:00,
2013-05-29 11:46:00,75.9,64.6,30.19,East,91,0.0,6.0,68,0.00,,BKN021,0.00,VWS V14.01,2013-05-29 15:46:00,
2013-05-29 11:51:00,76.4,65.1,30.19,WSW,246,1.0,3.0,68,0.00,,BKN021,0.00,VWS V14.01,2013-05-29 15:51:00,
2013-05-29 11:56:00,76.7,64.9,30.19,SSW,205,0.0,4.0,67,0.00,,BKN021,0.00,VWS V14.01,2013-05-29 15:56:00,
2013-05-29 12:01:00,76.9,64.7,30.19,SE,135,0.0,3.0,66,0.00,,BKN021,0.00,VWS V14.01,2013-05-29 16:01:00,
2013-05-29 12:06:00,77.2,64.5,30.18,SW,215,1.0,2.0,65,0.00,,BKN025,0.00,VWS V14.01,2013-05-29 16:06:00,
2013-05-29 12:11:00,77.7,65.0,30.19,SSW,205,2.0,3.0,65,0.00,,BKN025,0.00,VWS V14.01,2013-05-29 16:11:00,
2013-05-29 12:16:00,78.6,65.9,30.18,SW,228,0.0,1.0,65,0.00,,BKN025,0.00,VWS V14.01,2013-05-29 16:16:00,
2013-05-29 12:21:00,78.7,65.5,30.18,WSW,248,0.0,7.0,64,0.00,,BKN025,0.00,VWS V14.01,2013-05-29 16:21:00,
2013-05-29 12:26:00,79.3,65.6,30.18,West,263,2.0,2.0,63,0.00,,BKN025,0.00,VWS V14.01,2013-05-29 16:26:00,
2013-05-29 12:31:00,79.4,63.8,30.18,NNW,345,1.0,2.0,59,0.00,,BKN025,0.00,VWS V14.01,2013-05-29 16:31:00,
2013-05-29 12:36:00,79.8,64.2,30.18,East,89,3.0,3.0,59,0.00,,BKN025,0.00,VWS V14.01,2013-05-29 16:36:00,
2013-05-29 12:41:00,80.4,64.3,30.18,West,278,0.0,2.0,58,0.00,,BKN025,0.00,VWS V14.01,2013-05-29 16:41:00,
2013-05-29 12:46:00,81.4,65.7,30.18,North,4,3.0,3.0,59,0.00,,BKN025,0.00,VWS V14.01,2013-05-29 16:46:00,
2013-05-29 12:51:00,81.2,63.5,30.18,SW,219,0.0,5.0,55,0.00,,BKN025,0.00,VWS V14.01,2013-05-29 16:51:00,
2013-05-29 12:56:00,81.4,64.2,30.18,SW,222,2.0,4.0,56,0.00,,BKN025,0.00,VWS V14.01,2013-05-29 16:56:00,
2013-05-29 13:01:00,81.9,65.2,30.18,NE,43,1.0,2.0,57,0.00,,BKN025,0.00,VWS V14.01,2013-05-29 17:01:00,
2013-05-29 13:06:00,82.9,62.9,30.18,East,86,1.0,4.0,51,0.00,,SCT027,0.00,VWS V14.01,2013-05-29 17:06:00,
2013-05-29 13:11:00,82.6,61.5,30.18,East,93,0.0,4.0,49,0.00,,SCT027,0.00,VWS V14.01,2013-05-29 17:11:00,
2013-05-29 13:16:00,83.0,63.0,30.17,ESE,122,2.0,3.0,51,0.00,,SCT027,0.00,VWS V14.01,2013-05-29 17:16:00,
2013-05-29 13:21:00,83.2,63.2,30.17,NE,45,1.0,4.0,51,0.00,,SCT027,0.00,VWS V14.01,2013-05-29 17:21:00,
2013-05-29 13:26:00,82.3,61.8,30.16,East,86,3.0,8.0,50,0.00,,SCT027,0.00,VWS V14.01,2013-05-29 17:26:00,
2013-05-29 13:31:00,81.7,63.5,30.16,ESE,102,0.0,7.0,54,0.00,,SCT027,0.00,VWS V14.01,2013-05-29 17:31:00,
2013-05-29 13:36:00,82.3,62.4,30.16,ESE,123,1.0,3.0,51,0.00,,SCT027,0.00,VWS V14.01,2013-05-29 17:36:00,
2013-05-29 13:41:00,82.2,62.8,30.16,SW,222,0.0,5.0,52,0.00,,SCT027,0.00,VWS V14.01,2013-05-29 17:41:00,
2013-05-29 13:46:00,83.0,63.0,30.16,SW,218,0.0,4.0,51,0.00,,SCT027,0.00,VWS V14.01,2013-05-29 17:46:00,
2013-05-29 13:51:00,83.1,63.7,30.16,West,260,0.0,4.0,52,0.00,,SCT027,0.00,VWS V14.01,2013-05-29 17:51:00,
2013-05-29 13:56:00,84.2,62.4,30.16,SW,215,1.0,6.0,48,0.00,,SCT027,0.00,VWS V14.01,2013-05-29 17:56:00,
2013-05-29 14:01:00,83.9,62.7,30.15,SSW,197,1.0,5.0,49,0.00,,SCT027,0.00,VWS V14.01,2013-05-29 18:01:00,
2013-05-29 14:06:00,83.3,61.6,30.16,ENE,66,4.0,8.0,48,0.00,,FEW050,0.00,VWS V14.01,2013-05-29 18:06:00,
2013-05-29 14:11:00,82.5,63.1,30.15,NNE,22,0.0,6.0,52,0.00,,FEW050,0.00,VWS V14.01,2013-05-29 18:11:00,
2013-05-29 14:16:00,83.4,64.0,30.15,South,183,1.0,2.0,52,0.00,,FEW050,0.00,VWS V14.01,2013-05-29 18:16:00,
2013-05-29 14:21:00,83.9,63.8,30.14,WSW,250,1.0,5.0,51,0.00,,FEW050,0.00,VWS V14.01,2013-05-29 18:21:00,
2013-05-29 14:26:00,84.3,63.1,30.14,ESE,118,1.0,3.0,49,0.00,,FEW050,0.00,VWS V14.01,2013-05-29 18:26:00,
2013-05-29 14:31:00,83.9,63.3,30.14,ENE,63,1.0,11.0,50,0.00,,FEW050,0.00,VWS V14.01,2013-05-29 18:31:00,
2013-05-29 14:36:00,83.7,62.5,30.14,SW,231,0.0,10.0,49,0.00,,FEW050,0.00,VWS V14.01,2013-05-29 18:36:00,
2013-05-29 14:41:00,83.8,63.2,30.14,WSW,257,1.0,7.0,50,0.00,,FEW050,0.00,VWS V14.01,2013-05-29 18:41:00,
2013-05-29 14:46:00,83.9,63.3,30.13,SSE,154,1.0,9.0,50,0.00,,FEW050,0.00,VWS V14.01,2013-05-29 18:46:00,
2013-05-29 14:51:00,83.8,64.9,30.14,East,96,2.0,9.0,53,0.00,,FEW050,0.00,VWS V14.01,2013-05-29 18:51:00,
2013-05-29 14:56:00,84.1,63.5,30.13,SSW,201,0.0,2.0,50,0.00,,FEW050,0.00,VWS V14.01,2013-05-29 18:56:00,
2013-05-29 15:01:00,85.0,63.7,30.13,ESE,112,0.0,3.0,49,0.00,,FEW050,0.00,VWS V14.01,2013-05-29 19:01:00,
2013-05-29 15:06:00,85.0,63.1,30.13,SW,228,1.0,5.0,48,0.00,,SKC,0.00,VWS V14.01,2013-05-29 19:06:00,
2013-05-29 15:11:00,84.7,64.0,30.13,SSE,155,4.0,10.0,50,0.00,,SKC,0.00,VWS V14.01,2013-05-29 19:11:00,
2013-05-29 15:16:00,84.3,63.1,30.13,SSW,196,0.0,6.0,49,0.00,,SKC,0.00,VWS V14.01,2013-05-29 19:16:00,
2013-05-29 15:21:00,84.5,64.4,30.13,ENE,77,0.0,4.0,51,0.00,,SKC,0.00,VWS V14.01,2013-05-29 19:21:00,
2013-05-29 15:26:00,84.5,65.0,30.13,SW,235,1.0,4.0,52,0.00,,SKC,0.00,VWS V14.01,2013-05-29 19:26:00,
2013-05-29 15:31:00,84.6,64.5,30.13,SE,132,1.0,3.0,51,0.00,,SKC,0.00,VWS V14.01,2013-05-29 19:31:00,
2013-05-29 15:36:00,84.7,64.0,30.12,WSW,248,1.0,6.0,50,0.00,,SKC,0.00,VWS V14.01,2013-05-29 19:36:00,
2013-05-29 15:41:00,85.1,65.0,30.12,NNW,340,2.0,2.0,51,0.00,,SKC,0.00,VWS V14.01,2013-05-29 19:41:00,
2013-05-29 15:46:00,84.1,64.6,30.12,SW,224,0.0,6.0,52,0.00,,SKC,0.00,VWS V14.01,2013-05-29 19:46:00,
2013-05-29 15:51:00,83.4,64.5,30.12,East,98,2.0,5.0,53,0.00,,SKC,0.00,VWS V14.01,2013-05-29 19:51:00,
2013-05-29 15:56:00,82.8,65.0,30.12,SSE,165,1.0,5.0,55,0.00,,SKC,0.00,VWS V14.01,2013-05-29 19:56:00,
2013-05-29 16:01:00,82.9,64.6,30.12,NNW,343,0.0,4.0,54,0.00,,SKC,0.00,VWS V14.01,2013-05-29 20:01:00,
2013-05-29 16:06:00,82.0,64.3,30.12,NNE,23,0.0,9.0,55,0.00,,SCT080,0.00,VWS V14.01,2013-05-29 20:06:00,
2013-05-29 16:11:00,81.7,64.5,30.12,East,82,3.0,9.0,56,0.00,,SCT080,0.00,VWS V14.01,2013-05-29 20:11:00,
2013-05-29 16:16:00,81.5,65.3,30.11,ENE,57,6.0,6.0,58,0.00,,SCT080,0.00,VWS V14.01,2013-05-29 20:16:00,
2013-05-29 16:21:00,81.2,65.0,30.11,SE,146,1.0,6.0,58,0.00,,SCT080,0.00,VWS V14.01,2013-05-29 20:21:00,
2013-05-29 16:26:00,81.8,64.6,30.11,West,259,1.0,2.0,56,0.00,,SCT080,0.00,VWS V14.01,2013-05-29 20:26:00,
2013-05-29 16:31:00,82.1,64.3,30.11,SE,134,0.0,7.0,55,0.00,,SCT080,0.00,VWS V14.01,2013-05-29 20:31:00,
2013-05-29 16:36:00,82.4,65.1,30.11,NE,49,0.0,11.0,56,0.00,,SCT080,0.00,VWS V14.01,2013-05-29 20:36:00,
2013-05-29 16:41:00,83.4,65.6,30.11,WNW,282,0.0,3.0,55,0.00,,SCT080,0.00,VWS V14.01,2013-05-29 20:41:00,
2013-05-29 16:46:00,84.2,65.2,30.11,NE,53,1.0,5.0,53,0.00,,SCT080,0.00,VWS V14.01,2013-05-29 20:46:00,
2013-05-29 16:51:00,84.0,65.6,30.11,East,101,1.0,8.0,54,0.00,,SCT080,0.00,VWS V14.01,2013-05-29 20:51:00,
2013-05-29 16:56:00,83.6,64.7,30.11,ENE,77,4.0,7.0,53,0.00,,SCT080,0.00,VWS V14.01,2013-05-29 20:56:00,
2013-05-29 17:01:00,84.1,66.2,30.11,NNE,17,1.0,2.0,55,0.00,,SCT080,0.00,VWS V14.01,2013-05-29 21:01:00,
2013-05-29 17:06:00,85.0,66.0,30.11,SE,142,0.0,2.0,53,0.00,,SCT050,0.00,VWS V14.01,2013-05-29 21:06:00,
2013-05-29 17:11:00,85.0,65.4,30.11,ENE,67,0.0,5.0,52,0.00,,SCT050,0.00,VWS V14.01,2013-05-29 21:11:00,
2013-05-29 17:16:00,84.1,65.1,30.11,SW,233,0.0,4.0,53,0.00,,SCT050,0.00,VWS V14.01,2013-05-29 21:16:00,
2013-05-29 17:21:00,83.5,66.2,30.11,ESE,108,0.0,5.0,56,0.00,,SCT050,0.00,VWS V14.01,2013-05-29 21:21:00,
2013-05-29 17:26:00,83.5,64.0,30.11,ESE,110,1.0,6.0,52,0.00,,SCT050,0.00,VWS V14.01,2013-05-29 21:26:00,
2013-05-29 17:31:00,82.7,64.4,30.11,SW,226,0.0,3.0,54,0.00,,SCT050,0.00,VWS V14.01,2013-05-29 21:31:00,
2013-05-29 17:36:00,83.2,64.3,30.11,ESE,105,0.0,3.0,53,0.00,,SCT050,0.00,VWS V14.01,2013-05-29 21:36:00,
2013-05-29 17:41:00,83.8,65.4,30.11,East,84,1.0,5.0,54,0.00,,SCT050,0.00,VWS V14.01,2013-05-29 21:41:00,
2013-05-29 17:46:00,83.0,64.7,30.10,East,80,2.0,5.0,54,0.00,,SCT050,0.00,VWS V14.01,2013-05-29 21:46:00,
2013-05-29 17:51:00,82.3,65.1,30.10,SE,124,0.0,4.0,56,0.00,,SCT050,0.00,VWS V14.01,2013-05-29 21:51:00,
2013-05-29 17:56:00,82.4,64.6,30.10,East,92,2.0,5.0,55,0.00,,SCT050,0.00,VWS V14.01,2013-05-29 21:56:00,
2013-05-29 18:01:00,82.7,64.4,30.10,SSE,154,0.0,2.0,54,0.00,,SCT050,0.00,VWS V14.01,2013-05-29 22:01:00,
2013-05-29 18:06:00,83.3,65.5,30.09,SSW,212,0.0,5.0,55,0.00,,SCT060,0.00,VWS V14.01,2013-05-29 22:06:00,
2013-05-29 18:11:00,83.9,64.9,30.09,NE,39,0.0,6.0,53,0.00,,SCT060,0.00,VWS V14.01,2013-05-29 22:11:00,
2013-05-29 18:16:00,83.7,64.8,30.09,East,88,1.0,5.0,53,0.00,,SCT060,0.00,VWS V14.01,2013-05-29 22:16:00,
2013-05-29 18:21:00,82.9,64.6,30.09,East,82,1.0,4.0,54,0.00,,SCT060,0.00,VWS V14.01,2013-05-29 22:21:00,
2013-05-29 18:26:00,82.4,64.6,30.09,ESE,121,0.0,0.0,55,0.00,,SCT060,0.00,VWS V14.01,2013-05-29 22:26:00,
2013-05-29 18:31:00,82.2,65.0,30.09,NW,309,0.0,1.0,56,0.00,,SCT060,0.00,VWS V14.01,2013-05-29 22:31:00,
2013-05-29 18:36:00,81.9,64.7,30.09,ESE,121,0.0,6.0,56,0.00,,SCT060,0.00,VWS V14.01,2013-05-29 22:36:00,
2013-05-29 18:41:00,81.7,64.5,30.09,SSE,163,1.0,8.0,56,0.00,,SCT060,0.00,VWS V14.01,2013-05-29 22:41:00,
2013-05-29 18:46:00,81.8,64.6,30.09,SW,222,1.0,4.0,56,0.00,,SCT060,0.00,VWS V14.01,2013-05-29 22:46:00,
2013-05-29 18:51:00,82.3,65.1,30.09,East,82,2.0,2.0,56,0.00,,SCT060,0.00,VWS V14.01,2013-05-29 22:51:00,
2013-05-29 18:56:00,82.1,65.4,30.09,ESE,105,1.0,11.0,57,0.00,,SCT060,0.00,VWS V14.01,2013-05-29 22:56:00,
2013-05-29 19:01:00,81.5,64.8,30.09,NE,50,2.0,5.0,57,0.00,,SCT060,0.00,VWS V14.01,2013-05-29 23:01:00,
2013-05-29 19:06:00,81.1,64.9,30.09,SSW,201,0.0,4.0,58,0.00,,SCT060,0.00,VWS V14.01,2013-05-29 23:06:00,
2013-05-29 19:11:00,80.7,65.1,30.09,ENE,68,0.0,8.0,59,0.00,,SCT060,0.00,VWS V14.01,2013-05-29 23:11:00,
2013-05-29 19:16:00,80.3,65.2,30.09,East,89,0.0,3.0,60,0.00,,SCT060,0.00,VWS V14.01,2013-05-29 23:16:00,
2013-05-29 19:21:00,80.1,65.0,30.09,East,86,0.0,2.0,60,0.00,,SCT060,0.00,VWS V14.01,2013-05-29 23:21:00,
2013-05-29 19:26:00,79.9,65.3,30.09,ESE,115,0.0,3.0,61,0.00,,SCT060,0.00,VWS V14.01,2013-05-29 23:26:00,
2013-05-29 19:31:00,79.6,65.0,30.09,ENE,75,1.0,7.0,61,0.00,,SCT060,0.00,VWS V14.01,2013-05-29 23:31:00,
2013-05-29 19:36:00,79.3,65.2,30.09,ESE,115,0.0,6.0,62,0.00,,SCT060,0.00,VWS V14.01,2013-05-29 23:36:00,
2013-05-29 19:41:00,79.1,65.0,30.09,ENE,61,1.0,5.0,62,0.00,,SCT060,0.00,VWS V14.01,2013-05-29 23:41:00,
2013-05-29 19:46:00,78.9,64.8,30.09,East,84,3.0,3.0,62,0.00,,SCT060,0.00,VWS V14.01,2013-05-29 23:46:00,
2013-05-29 19:51:00,78.7,65.1,30.09,ENE,75,0.0,1.0,63,0.00,,SCT060,0.00,VWS V14.01,2013-05-29 23:51:00,
2013-05-29 19:56:00,78.5,64.9,30.09,East,91,0.0,3.0,63,0.00,,SCT060,0.00,VWS V14.01,2013-05-29 23:56:00,
2013-05-29 20:01:00,78.3,64.7,30.09,NE,53,0.0,6.0,63,0.00,,SCT060,0.00,VWS V14.01,2013-05-30 00:01:00,
2013-05-29 20:06:00,78.2,65.0,30.09,ENE,57,0.0,7.0,64,0.00,,SKC,0.00,VWS V14.01,2013-05-30 00:06:00,
2013-05-29 20:11:00,78.1,65.4,30.09,WNW,285,0.0,5.0,65,0.00,,SKC,0.00,VWS V14.01,2013-05-30 00:11:00,
2013-05-29 20:16:00,77.9,64.8,30.09,East,83,0.0,5.0,64,0.00,,SKC,0.00,VWS V14.01,2013-05-30 00:16:00,
2013-05-29 20:21:00,77.6,64.9,30.09,East,79,1.0,1.0,65,0.00,,SKC,0.00,VWS V14.01,2013-05-30 00:21:00,
2013-05-29 20:26:00,77.3,64.6,30.09,ENE,77,0.0,2.0,65,0.00,,SKC,0.00,VWS V14.01,2013-05-30 00:26:00,
2013-05-29 20:31:00,77.0,64.3,30.09,East,92,0.0,2.0,65,0.00,,SKC,0.00,VWS V14.01,2013-05-30 00:31:00,
2013-05-29 20:36:00,76.8,64.6,30.09,ENE,77,0.0,2.0,66,0.00,,SKC,0.00,VWS V14.01,2013-05-30 00:36:00,
2013-05-29 20:41:00,76.6,64.4,30.09,East,80,0.0,1.0,66,0.00,,SKC,0.00,VWS V14.01,2013-05-30 00:41:00,
2013-05-29 20:46:00,76.5,64.3,30.09,East,82,1.0,3.0,66,0.00,,SKC,0.00,VWS V14.01,2013-05-30 00:46:00,
2013-05-29 20:51:00,76.3,64.6,30.09,East,91,1.0,2.0,67,0.00,,SKC,0.00,VWS V14.01,2013-05-30 00:51:00,
2013-05-29 20:56:00,76.1,64.4,30.10,East,91,0.0,1.0,67,0.00,,SKC,0.00,VWS V14.01,2013-05-30 00:56:00,
2013-05-29 21:01:00,75.8,64.5,30.10,East,91,0.0,1.0,68,0.00,,SKC,0.00,VWS V14.01,2013-05-30 01:01:00,
2013-05-29 21:06:00,75.5,64.2,30.10,East,91,0.0,0.0,68,0.00,,SKC,0.00,VWS V14.01,2013-05-30 01:06:00,
2013-05-29 21:11:00,75.3,64.4,30.10,East,89,0.0,1.0,69,0.00,,SKC,0.00,VWS V14.01,2013-05-30 01:11:00,
2013-05-29 21:16:00,75.2,64.3,30.10,East,88,0.0,1.0,69,0.00,,SKC,0.00,VWS V14.01,2013-05-30 01:16:00,
2013-05-29 21:21:00,74.9,64.5,30.10,ENE,61,0.0,1.0,70,0.00,,SKC,0.00,VWS V14.01,2013-05-30 01:21:00,
2013-05-29 21:26:00,74.8,64.4,30.10,East,83,0.0,1.0,70,0.00,,SKC,0.00,VWS V14.01,2013-05-30 01:26:00,
2013-05-29 21:31:00,74.7,64.3,30.10,East,89,2.0,2.0,70,0.00,,SKC,0.00,VWS V14.01,2013-05-30 01:31:00,
2013-05-29 21:36:00,74.6,64.6,30.10,East,92,0.0,2.0,71,0.00,,SKC,0.00,VWS V14.01,2013-05-30 01:36:00,
2013-05-29 21:41:00,74.4,64.4,30.10,East,91,1.0,1.0,71,0.00,,SKC,0.00,VWS V14.01,2013-05-30 01:41:00,
2013-05-29 21:46:00,74.2,64.2,30.10,ENE,75,0.0,1.0,71,0.00,,SKC,0.00,VWS V14.01,2013-05-30 01:46:00,
2013-05-29 21:51:00,74.1,64.5,30.10,ESE,103,0.0,2.0,72,0.00,,SKC,0.00,VWS V14.01,2013-05-30 01:51:00,
2013-05-29 21:56:00,73.9,64.3,30.11,ESE,103,0.0,1.0,72,0.00,,SKC,0.00,VWS V14.01,2013-05-30 01:56:00,
2013-05-29 22:01:00,73.9,64.3,30.11,ESE,103,0.0,1.0,72,0.00,,SKC,0.00,VWS V14.01,2013-05-30 02:01:00,
2013-05-29 22:06:00,73.7,64.5,30.11,East,98,0.0,1.0,73,0.00,,SKC,0.00,VWS V14.01,2013-05-30 02:06:00,
2013-05-29 22:11:00,73.5,64.3,30.11,East,99,0.0,1.0,73,0.00,,SKC,0.00,VWS V14.01,2013-05-30 02:11:00,
2013-05-29 22:16:00,73.5,64.3,30.11,East,99,0.0,1.0,73,0.00,,SKC,0.00,VWS V14.01,2013-05-30 02:16:00,
2013-05-29 22:21:00,73.3,64.1,30.11,ENE,74,0.0,1.0,73,0.00,,SKC,0.00,VWS V14.01,2013-05-30 02:21:00,
2013-05-29 22:26:00,73.3,64.5,30.12,ENE,73,0.0,0.0,74,0.00,,SKC,0.00,VWS V14.01,2013-05-30 02:26:00,
2013-05-29 22:31:00,73.0,64.6,30.12,ENE,74,0.0,0.0,75,0.00,,SKC,0.00,VWS V14.01,2013-05-30 02:31:00,
2013-05-29 22:36:00,72.7,64.3,30.12,ENE,73,0.0,1.0,75,0.00,,SKC,0.00,VWS V14.01,2013-05-30 02:36:00,
2013-05-29 22:41:00,72.5,64.5,30.12,ENE,73,0.0,0.0,76,0.00,,SKC,0.00,VWS V14.01,2013-05-30 02:41:00,
2013-05-29 22:46:00,72.4,64.4,30.12,NE,44,0.0,2.0,76,0.00,,SKC,0.00,VWS V14.01,2013-05-30 02:46:00,
2013-05-29 22:51:00,72.3,64.3,30.12,East,82,0.0,2.0,76,0.00,,SKC,0.00,VWS V14.01,2013-05-30 02:51:00,
2013-05-29 22:56:00,72.4,64.4,30.12,ESE,106,0.0,2.0,76,0.00,,SKC,0.00,VWS V14.01,2013-05-30 02:56:00,
2013-05-29 23:01:00,72.3,64.3,30.12,ENE,78,1.0,1.0,76,0.00,,SKC,0.00,VWS V14.01,2013-05-30 03:01:00,
2013-05-29 23:06:00,72.3,64.3,30.11,ESE,115,0.0,4.0,76,0.00,,SKC,0.00,VWS V14.01,2013-05-30 03:06:00,
2013-05-29 23:11:00,72.3,64.3,30.11,East,81,0.0,4.0,76,0.00,,SKC,0.00,VWS V14.01,2013-05-30 03:11:00,
2013-05-29 23:16:00,72.3,64.3,30.11,ENE,69,2.0,3.0,76,0.00,,SKC,0.00,VWS V14.01,2013-05-30 03:16:00,
2013-05-29 23:21:00,72.2,64.6,30.11,East,82,0.0,2.0,77,0.00,,SKC,0.00,VWS V14.01,2013-05-30 03:21:00,
2013-05-29 23:26:00,72.1,64.5,30.11,ESE,120,0.0,3.0,77,0.00,,SKC,0.00,VWS V14.01,2013-05-30 03:26:00,
2013-05-29 23:31:00,71.9,64.3,30.11,East,89,0.0,2.0,77,0.00,,SKC,0.00,VWS V14.01,2013-05-30 03:31:00,
2013-05-29 23:36:00,71.8,64.2,30.11,East,93,0.0,1.0,77,0.00,,SKC,0.00,VWS V14.01,2013-05-30 03:36:00,
2013-05-29 23:41:00,71.7,64.1,30.11,East,81,0.0,2.0,77,0.00,,SKC,0.00,VWS V14.01,2013-05-30 03:41:00,
2013-05-29 23:46:00,71.6,64.0,30.11,East,84,0.0,1.0,77,0.00,,SKC,0.00,VWS V14.01,2013-05-30 03:46:00,
2013-05-29 23:51:00,71.4,64.2,30.11,East,99,0.0,2.0,78,0.00,,SKC,0.00,VWS V14.01,2013-05-30 03:51:00,
2013-05-29 23:56:00,71.4,64.2,30.11,East,97,0.0,4.0,78,0.00,,SKC,0.00,VWS V14.01,2013-05-30 03:56:00,